KB2SKP Weather Reports


Display with metric or nautical units.
time (UTC)temp
F
wind
direction
speed
MPH
gust
MPH
rain 1hr
in
rain 24hr
in
rain mn
in
humidity
%
barometer
mb
20260510043520 58 122 0.0 2.0 0.00 0.00 0.00 90 1007.0
20260510043015 58 133 2.0 2.0 0.00 0.00 0.00 90 1006.9
20260510042510 58 243 0.0 2.0 0.00 0.00 0.00 90 1006.8
20260510042005 58 122 1.0 2.0 0.00 0.00 0.00 90 1006.8
20260510041503 58 92 1.0 2.0 0.00 0.00 0.00 90 1006.9
20260510041000 58 101 1.0 2.0 0.00 0.00 0.00 90 1006.7
20260510040456 58 76 0.0 2.0 0.00 0.00 0.00 90 1006.8
20260510035952 58 107 0.0 2.0 0.00 0.00 0.00 90 1006.9
20260510035449 58 98 1.0 2.0 0.00 0.00 0.00 90 1006.7
20260510034948 58 116 0.0 2.0 0.00 0.00 0.00 90 1007.0
20260510034447 58 103 1.0 2.0 0.00 0.00 0.00 89 1006.9
20260510033943 58 107 1.0 2.0 0.00 0.00 0.00 89 1006.9
20260510033439 59 200 0.0 2.0 0.00 0.00 0.00 89 1006.6
20260510032937 58 136 1.0 3.0 0.00 0.00 0.00 90 1006.9
20260510032434 58 55 1.0 2.0 0.00 0.00 0.00 90 1006.8
20260510031928 58 123 1.0 2.0 0.00 0.00 0.00 89 1006.6
20260510031424 59 131 0.0 2.0 0.00 0.00 0.00 89 1006.6
20260510030920 59 176 2.0 2.0 0.00 0.00 0.00 89 1006.6
20260510030416 59 130 1.0 2.0 0.00 0.00 0.00 89 1006.3
20260510025914 59 142 1.0 2.0 0.00 0.00 0.00 89 1006.4
20260510025410 59 42 0.0 2.0 0.00 0.00 0.00 89 1006.5
20260510024908 59 113 0.0 2.0 0.00 0.00 0.00 88 1006.2
20260510024404 59 165 0.0 3.0 0.00 0.00 0.00 88 1006.5
20260510023900 60 158 0.0 1.0 0.00 0.00 0.00 88 1006.1
20260510023357 60 308 0.0 3.0 0.00 0.00 0.00 88 1006.3
20260510022854 60 113 0.0 2.0 0.00 0.00 0.00 88 1006.1
20260510022353 60 204 0.0 2.0 0.00 0.00 0.00 88 1006.1
20260510021852 60 76 0.0 2.0 0.00 0.00 0.00 88 1006.4
20260510021350 60 158 2.0 2.0 0.00 0.00 0.00 89 1006.1
20260510020847 60 143 0.0 1.0 0.00 0.00 0.00 88 1006.0
20260510020347 60 116 0.0 1.0 0.00 0.00 0.00 88 1006.1
20260510015842 60 89 0.0 1.0 0.00 0.00 0.00 88 1005.9
20260510015338 60 107 0.0 1.0 0.00 0.00 0.00 88 1006.1
20260510014834 60 102 0.0 1.0 0.00 0.00 0.00 88 1005.8
20260510014331 60 113 0.0 1.0 0.00 0.00 0.00 87 1006.0
20260510013827 61 99 0.0 1.0 0.00 0.00 0.00 87 1005.8
20260510013323 61 129 0.0 1.0 0.00 0.00 0.00 87 1005.9
20260510012818 61 116 0.0 2.0 0.00 0.00 0.00 86 1005.9
20260510012318 61 92 1.0 1.0 0.00 0.00 0.00 86 1005.9
20260510011813 61 130 0.0 1.0 0.00 0.00 0.00 85 1005.7
20260510011308 61 130 0.0 0.0 0.00 0.00 0.00 85 1005.9
20260510010805 62 42 0.0 1.0 0.00 0.00 0.00 85 1005.5
20260510010303 62 37 0.0 0.0 0.00 0.00 0.00 84 1005.6
20260510005759 62 66 0.0 1.0 0.00 0.00 0.00 84 1005.7
20260510005255 62 135 0.0 0.0 0.00 0.00 0.00 83 1005.5
20260510004754 63 113 0.0 0.0 0.00 0.00 0.00 83 1005.5
20260510004251 63 89 0.0 1.0 0.00 0.00 0.00 82 1005.5
20260510003748 63 112 1.0 2.0 0.00 0.00 0.00 81 1005.3
20260510003245 64 89 0.0 0.0 0.00 0.00 0.00 80 1005.3
20260510002743 64 113 0.0 0.0 0.00 0.00 0.00 79 1005.3
20260510002241 64 113 0.0 0.0 0.00 0.00 0.00 78 1005.3
20260510001737 65 142 0.0 0.0 0.00 0.00 0.00 77 1005.2
20260510001236 65 113 0.0 0.0 0.00 0.00 0.00 76 1005.2
20260510000732 66 44 0.0 0.0 0.00 0.00 0.00 76 1005.1
20260510000229 66 31 0.0 0.0 0.00 0.00 0.00 75 1005.0
20260509235726 66 37 0.0 0.0 0.00 0.00 0.00 74 1005.1
20260509235222 67 57 0.0 1.0 0.00 0.00 0.00 73 1004.9
20260509234718 67 49 0.0 0.0 0.00 0.00 0.00 72 1004.9
20260509234215 68 49 0.0 0.0 0.00 0.00 0.00 71 1005.0
20260509233713 68 49 0.0 0.0 0.00 0.00 0.00 70 1005.2
20260509233205 68 49 0.0 0.0 0.00 0.00 0.00 69 1005.0
20260509232701 69 49 0.0 0.0 0.00 0.00 0.00 68 1004.9
20260509232158 69 49 0.0 0.0 0.00 0.00 0.00 67 1004.9
20260509231655 69 49 0.0 1.0 0.00 0.00 0.00 66 1004.9
20260509231152 70 32 0.0 0.0 0.00 0.00 0.00 65 1004.8
20260509230649 70 119 0.0 1.0 0.00 0.00 0.00 64 1005.0
20260509230146 70 66 0.0 0.0 0.00 0.00 0.00 64 1004.9
20260509225642 70 89 0.0 1.0 0.00 0.00 0.00 63 1004.8
20260509225137 70 55 0.0 1.0 0.00 0.00 0.00 63 1005.1
20260509224633 70 55 0.0 1.0 0.00 0.00 0.00 63 1004.9
20260509224130 70 15 0.0 2.0 0.00 0.00 0.00 62 1005.1
20260509223626 70 55 0.0 1.0 0.00 0.00 0.00 62 1005.0
20260509223119 71 304 0.0 1.0 0.00 0.00 0.00 61 1005.1
20260509222615 71 352 0.0 1.0 0.00 0.00 0.00 62 1005.0
20260509222110 71 322 0.0 1.0 0.00 0.00 0.00 62 1005.0
20260509221606 71 15 0.0 2.0 0.00 0.00 0.00 61 1005.3
20260509221103 71 17 1.0 1.0 0.00 0.00 0.00 63 1005.1
20260509220558 72 116 1.0 1.0 0.00 0.00 0.00 62 1004.9
20260509220055 72 58 1.0 2.0 0.00 0.00 0.00 62 1005.2
20260509215550 71 6 0.0 1.0 0.00 0.00 0.00 63 1004.9
20260509215048 71 62 0.0 2.0 0.00 0.00 0.00 65 1005.0
20260509214545 71 51 0.0 2.0 0.00 0.00 0.00 64 1005.0
20260509214042 71 110 1.0 2.0 0.00 0.00 0.00 65 1005.1
20260509213538 71 229 0.0 2.0 0.00 0.00 0.00 65 1004.8
20260509213035 70 79 0.0 2.0 0.00 0.00 0.00 65 1005.0
20260509212532 71 37 0.0 2.0 0.00 0.00 0.00 65 1004.9
20260509212029 70 49 0.0 2.0 0.00 0.00 0.00 64 1004.9
20260509211524 69 50 0.0 1.0 0.00 0.00 0.00 65 1004.9
20260509211021 70 84 0.0 2.0 0.00 0.00 0.00 64 1004.8
20260509210518 70 327 2.0 2.0 0.00 0.00 0.00 64 1004.6
20260509210015 70 20 0.0 2.0 0.00 0.00 0.00 64 1004.7
20260509205509 71 325 0.0 1.0 0.00 0.00 0.00 63 1004.7
20260509205005 72 349 0.0 2.0 0.00 0.00 0.00 62 1004.6
20260509204501 73 5 0.0 1.0 0.00 0.00 0.00 59 1004.5
20260509203957 71 6 0.0 1.0 0.00 0.00 0.00 57 1004.7
20260509203453 73 34 0.0 1.0 0.00 0.00 0.00 55 1004.6
20260509202951 72 235 0.0 2.0 0.00 0.00 0.00 55 1004.6
20260509202447 72 173 0.0 0.0 0.00 0.00 0.00 55 1004.9
20260509201942 72 173 0.0 0.0 0.00 0.00 0.00 55 1004.8
20260509201438 72 6 0.0 0.0 0.00 0.00 0.00 54 1004.7
20260509200935 73 142 2.0 2.0 0.00 0.00 0.00 54 1005.0
20260509200434 73 329 0.0 0.0 0.00 0.00 0.00 56 1005.0
20260509195932 73 299 0.0 2.0 0.00 0.00 0.00 53 1005.0
20260509195427 74 269 0.0 1.0 0.00 0.00 0.00 50 1005.0
20260509194920 74 91 0.0 2.0 0.00 0.00 0.00 51 1005.3
20260509194416 75 36 2.0 3.0 0.00 0.00 0.00 50 1005.2
20260509193914 75 75 0.0 2.0 0.00 0.00 0.00 51 1005.3
20260509193413 75 237 1.0 3.0 0.00 0.00 0.00 51 1005.3
20260509192909 75 116 2.0 2.0 0.00 0.00 0.00 51 1005.2
20260509192405 75 50 0.0 2.0 0.00 0.00 0.00 52 1005.6
20260509191901 75 325 2.0 2.0 0.00 0.00 0.00 52 1005.6
20260509191357 74 89 0.0 3.0 0.00 0.00 0.00 52 1005.6
20260509190853 73 74 1.0 2.0 0.00 0.00 0.00 53 1005.5
20260509190350 72 30 1.0 3.0 0.00 0.00 0.00 53 1005.5
20260509185848 72 17 2.0 3.0 0.00 0.00 0.00 53 1006.1
20260509185344 73 311 0.0 4.0 0.00 0.00 0.00 53 1005.9
20260509184841 72 292 0.0 2.0 0.00 0.00 0.00 53 1006.1
20260509184338 72 188 1.0 1.0 0.00 0.00 0.00 52 1006.1
20260509183835 72 14 0.0 2.0 0.00 0.00 0.00 54 1006.4
20260509183330 71 172 1.0 2.0 0.00 0.00 0.00 53 1006.5
20260509182826 72 5 2.0 3.0 0.00 0.00 0.00 51 1006.5
20260509182323 73 150 0.0 3.0 0.00 0.00 0.00 51 1006.5
20260509181821 73 191 2.0 3.0 0.00 0.00 0.00 52 1006.5
20260509181318 73 81 1.0 4.0 0.00 0.00 0.00 52 1006.6
20260509180815 72 216 0.0 3.0 0.00 0.00 0.00 54 1006.6
20260509180311 72 140 2.0 3.0 0.00 0.00 0.00 54 1006.5
20260509175808 72 233 1.0 2.0 0.00 0.00 0.00 54 1006.6
20260509175306 72 51 2.0 5.0 0.00 0.00 0.00 54 1006.9
20260509174800 72 89 0.0 2.0 0.00 0.00 0.00 55 1006.7
20260509174256 71 219 1.0 3.0 0.00 0.00 0.00 56 1007.0
20260509173752 71 99 2.0 3.0 0.00 0.00 0.00 57 1006.8
20260509173247 70 41 0.0 4.0 0.00 0.00 0.00 57 1006.7
20260509172744 70 123 0.0 3.0 0.00 0.00 0.00 56 1006.8
20260509172241 70 217 1.0 3.0 0.00 0.00 0.00 57 1007.1
20260509171736 70 135 1.0 3.0 0.00 0.00 0.00 56 1007.1
20260509171232 70 108 2.0 4.0 0.00 0.00 0.00 57 1007.0
20260509170729 70 153 1.0 3.0 0.00 0.00 0.00 55 1007.0
20260509170225 70 220 0.0 4.0 0.00 0.00 0.00 55 1007.3
20260509165724 69 102 2.0 4.0 0.00 0.00 0.00 55 1006.8
20260509165219 70 265 1.0 4.0 0.00 0.00 0.00 56 1007.2
20260509164715 70 161 2.0 3.0 0.00 0.00 0.00 55 1007.2
20260509164211 70 41 1.0 3.0 0.00 0.00 0.00 58 1007.0
20260509163709 70 120 3.0 4.0 0.00 0.00 0.00 57 1007.3
20260509163205 70 114 3.0 5.0 0.00 0.00 0.00 57 1007.0
20260509162703 69 269 0.0 5.0 0.00 0.00 0.00 59 1007.4
20260509162158 69 115 2.0 4.0 0.00 0.00 0.00 59 1007.4
20260509161654 69 188 3.0 4.0 0.00 0.00 0.00 59 1007.4
20260509161150 68 76 1.0 4.0 0.00 0.00 0.00 59 1007.4
20260509160645 69 99 3.0 3.0 0.00 0.00 0.00 60 1007.5
20260509160141 68 15 2.0 4.0 0.00 0.00 0.00 60 1007.7
20260509155638 68 107 2.0 5.0 0.00 0.00 0.00 60 1007.7
20260509155134 68 115 3.0 5.0 0.00 0.00 0.00 61 1007.9
20260509154630 69 38 3.0 3.0 0.00 0.00 0.00 60 1007.7
20260509154127 69 113 3.0 3.0 0.00 0.00 0.00 61 1007.8
20260509153624 68 15 2.0 2.0 0.00 0.00 0.00 63 1007.7
20260509153121 67 75 2.0 2.0 0.00 0.00 0.00 64 1007.6
20260509152616 67 98 1.0 3.0 0.00 0.00 0.00 64 1007.8
20260509152114 67 139 2.0 4.0 0.00 0.00 0.00 64 1007.8
20260509151610 67 48 3.0 5.0 0.00 0.00 0.00 64 1008.0
20260509151108 67 101 3.0 3.0 0.00 0.00 0.00 64 1008.1
20260509150605 66 42 2.0 3.0 0.00 0.00 0.00 64 1008.3
20260509150104 66 232 3.0 3.0 0.00 0.00 0.00 64 1008.2
20260509145559 67 168 2.0 3.0 0.00 0.00 0.00 64 1008.5
20260509145054 67 83 0.0 4.0 0.00 0.00 0.00 63 1008.5
20260509144552 67 145 0.0 3.0 0.00 0.00 0.00 64 1008.6
20260509144049 67 136 0.0 3.0 0.00 0.00 0.00 64 1008.7
20260509143546 66 235 2.0 5.0 0.00 0.00 0.00 65 1008.5
20260509143044 66 79 2.0 3.0 0.00 0.00 0.00 66 1008.6
20260509142538 66 98 1.0 4.0 0.00 0.00 0.00 66 1008.8
20260509142035 65 251 2.0 4.0 0.00 0.00 0.00 67 1008.8
20260509141526 65 12 1.0 3.0 0.00 0.00 0.00 70 1008.8
20260509141023 64 147 0.0 2.0 0.00 0.00 0.00 69 1008.9
20260509140519 65 115 0.0 5.0 0.00 0.00 0.00 68 1008.8
20260509140018 65 189 3.0 6.0 0.00 0.00 0.00 69 1008.9
20260509135514 64 101 1.0 2.0 0.00 0.00 0.00 70 1008.9
20260509135012 64 150 0.0 3.0 0.00 0.00 0.00 68 1009.0
20260509134509 65 205 0.0 2.0 0.00 0.00 0.00 70 1009.0
20260509134007 64 29 0.0 2.0 0.00 0.00 0.00 70 1009.0
20260509133503 64 97 1.0 3.0 0.00 0.00 0.00 70 1009.0
20260509133001 64 55 2.0 3.0 0.00 0.00 0.00 71 1009.1
20260509132459 64 145 1.0 4.0 0.00 0.00 0.00 71 1008.8
20260509131956 64 101 2.0 2.0 0.00 0.00 0.00 71 1009.0
20260509131453 64 229 1.0 3.0 0.00 0.00 0.00 71 1008.9
20260509130949 63 129 1.0 2.0 0.00 0.00 0.00 73 1008.8
20260509130444 63 146 2.0 3.0 0.00 0.00 0.00 73 1008.8
20260509125943 63 57 2.0 4.0 0.00 0.00 0.00 74 1009.1
20260509125439 62 153 0.0 2.0 0.00 0.00 0.00 75 1008.8
20260509124934 62 150 1.0 3.0 0.00 0.00 0.00 76 1009.0
20260509124432 61 109 2.0 3.0 0.00 0.00 0.00 76 1009.2
20260509123929 61 83 2.0 3.0 0.00 0.00 0.00 77 1009.2
20260509123426 61 96 2.0 3.0 0.00 0.00 0.00 77 1009.1
20260509122922 61 124 3.0 4.0 0.00 0.00 0.00 78 1009.0
20260509122420 60 10 0.0 3.0 0.00 0.00 0.00 78 1009.0
20260509121916 60 62 1.0 3.0 0.00 0.00 0.00 79 1009.0
20260509121413 60 116 2.0 4.0 0.00 0.00 0.00 79 1008.9
20260509120911 59 47 1.0 4.0 0.00 0.00 0.00 79 1009.0
20260509120409 59 100 2.0 3.0 0.00 0.00 0.00 79 1009.0
20260509115907 59 66 2.0 3.0 0.00 0.00 0.00 80 1009.1
20260509115404 59 112 3.0 3.0 0.00 0.00 0.00 80 1009.3
20260509114901 59 57 0.0 5.0 0.00 0.00 0.00 80 1009.1
20260509114400 58 138 2.0 4.0 0.00 0.00 0.00 81 1008.9
20260509113859 58 132 1.0 3.0 0.00 0.00 0.00 82 1009.1
20260509113355 58 38 2.0 3.0 0.00 0.00 0.00 82 1009.1
20260509112852 57 70 2.0 3.0 0.00 0.00 0.00 83 1009.0
20260509112349 57 339 1.0 3.0 0.00 0.00 0.00 83 1009.1
20260509111847 57 85 2.0 4.0 0.00 0.00 0.00 83 1008.9
20260509111343 57 139 2.0 5.0 0.00 0.00 0.00 84 1009.0
20260509110842 57 143 2.0 3.0 0.00 0.00 0.00 84 1009.1
20260509110337 57 111 2.0 4.0 0.00 0.00 0.00 84 1009.2
20260509105836 56 98 1.0 3.0 0.00 0.00 0.00 85 1009.2
20260509105333 56 122 1.0 3.0 0.00 0.00 0.00 85 1009.4
20260509104829 56 112 2.0 3.0 0.00 0.00 0.00 86 1009.2
20260509104326 55 113 0.0 3.0 0.00 0.00 0.00 86 1009.2
20260509103824 55 94 3.0 3.0 0.00 0.00 0.00 87 1009.1
20260509103321 55 108 1.0 3.0 0.00 0.00 0.00 88 1009.1
20260509102820 54 101 2.0 3.0 0.00 0.00 0.00 88 1009.3
20260509102317 54 106 0.0 2.0 0.00 0.00 0.00 89 1009.2
20260509101812 54 125 1.0 2.0 0.00 0.00 0.00 90 1009.1
20260509101309 53 119 0.0 2.0 0.00 0.00 0.00 90 1008.9
20260509100807 53 62 1.0 3.0 0.00 0.00 0.00 90 1009.1
20260509100304 53 94 2.0 2.0 0.00 0.00 0.00 90 1008.9
20260509095800 53 32 1.0 2.0 0.00 0.00 0.00 90 1009.0
20260509095258 53 13 1.0 3.0 0.00 0.00 0.00 90 1009.1
20260509094755 53 105 1.0 2.0 0.00 0.00 0.00 90 1009.0
20260509094251 54 70 0.0 2.0 0.00 0.00 0.00 89 1009.1
20260509093749 54 93 2.0 2.0 0.00 0.00 0.00 89 1009.0
20260509093246 54 74 1.0 2.0 0.00 0.00 0.00 89 1008.8
20260509092745 54 55 0.0 3.0 0.00 0.00 0.00 89 1009.1
20260509092242 54 48 1.0 2.0 0.00 0.00 0.00 88 1009.0
20260509091740 54 59 0.0 2.0 0.00 0.00 0.00 88 1009.1
20260509091236 54 39 1.0 2.0 0.00 0.00 0.00 88 1008.9
20260509090734 55 102 1.0 2.0 0.00 0.00 0.00 87 1008.9
20260509090231 55 82 0.0 2.0 0.00 0.00 0.00 87 1009.0
20260509085728 55 86 0.0 2.0 0.00 0.00 0.00 86 1008.8
20260509085225 55 214 0.0 2.0 0.00 0.00 0.00 85 1008.8
20260509084722 55 30 0.0 2.0 0.00 0.00 0.00 85 1009.0
20260509084218 56 147 0.0 2.0 0.00 0.00 0.00 84 1008.9
20260509083717 56 59 0.0 1.0 0.00 0.00 0.00 84 1008.9
20260509083213 56 191 0.0 2.0 0.00 0.00 0.00 84 1008.9
20260509082710 56 164 0.0 3.0 0.00 0.00 0.00 83 1008.9
20260509082206 57 57 0.0 2.0 0.00 0.00 0.00 82 1008.9
20260509081703 57 88 2.0 2.0 0.00 0.00 0.00 82 1009.0
20260509081200 57 35 0.0 2.0 0.00 0.00 0.00 82 1009.0
20260509080659 57 65 2.0 2.0 0.00 0.00 0.00 82 1009.1
20260509080156 57 50 2.0 3.0 0.00 0.00 0.00 81 1009.1
20260509075654 57 54 2.0 3.0 0.00 0.00 0.00 81 1009.2
20260509075151 57 89 2.0 3.0 0.00 0.00 0.00 81 1009.2
20260509074648 57 82 1.0 3.0 0.00 0.00 0.00 80 1009.1
20260509074145 57 97 2.0 3.0 0.00 0.00 0.00 80 1009.1
20260509073642 57 92 2.0 3.0 0.00 0.00 0.00 80 1009.3
20260509073138 57 93 2.0 3.0 0.00 0.00 0.00 79 1009.6
20260509072635 57 109 1.0 3.0 0.00 0.00 0.00 79 1009.4
20260509072132 57 54 1.0 3.0 0.00 0.00 0.00 79 1009.1
20260509071628 58 61 1.0 3.0 0.00 0.00 0.00 78 1009.4
20260509071126 58 88 0.0 3.0 0.00 0.00 0.00 78 1009.3
20260509070623 58 80 1.0 2.0 0.00 0.00 0.00 78 1009.3
20260509070119 58 83 2.0 2.0 0.00 0.00 0.00 77 1009.2
20260509065614 58 69 0.0 3.0 0.00 0.00 0.00 76 1009.2
20260509065111 58 339 0.0 4.0 0.00 0.00 0.00 76 1009.3
20260509064608 58 130 0.0 4.0 0.00 0.00 0.00 76 1009.3
20260509064107 58 92 2.0 2.0 0.00 0.00 0.00 75 1009.5
20260509063603 58 108 2.0 3.0 0.00 0.00 0.00 74 1009.6
20260509063059 59 116 2.0 3.0 0.00 0.00 0.00 74 1009.5
20260509062556 58 126 2.0 4.0 0.00 0.00 0.00 75 1009.7
20260509062054 58 66 0.0 3.0 0.00 0.00 0.00 75 1009.7
20260509061550 58 113 1.0 3.0 0.00 0.00 0.00 75 1009.4
20260509061048 58 133 2.0 3.0 0.00 0.00 0.00 77 1009.6
20260509060545 57 302 1.0 2.0 0.00 0.00 0.00 78 1009.6
20260509060041 57 182 0.0 3.0 0.00 0.00 0.00 78 1009.5
20260509055536 56 138 2.0 2.0 0.00 0.00 0.00 80 1009.5
20260509055033 56 95 1.0 2.0 0.00 0.00 0.00 81 1009.4
20260509054529 55 85 0.0 2.0 0.00 0.00 0.00 82 1009.5
20260509054027 55 97 0.0 3.0 0.00 0.00 0.00 83 1009.4
20260509053525 54 89 0.0 3.0 0.00 0.00 0.00 83 1009.7
20260509053016 54 148 0.0 2.0 0.00 0.00 0.00 83 1009.6
20260509052514 54 171 0.0 1.0 0.00 0.00 0.00 84 1009.6
20260509052012 54 85 0.0 2.0 0.00 0.00 0.00 83 1009.8
20260509051510 55 80 0.0 1.0 0.00 0.00 0.00 82 1009.7
20260509051007 55 155 0.0 2.0 0.00 0.00 0.00 82 1009.8
20260509050503 55 117 2.0 2.0 0.00 0.00 0.00 82 1009.9
20260509050000 55 113 2.0 3.0 0.00 0.00 0.00 82 1009.7
20260509045457 55 83 2.0 2.0 0.00 0.00 0.00 81 1009.6
20260509044954 55 124 2.0 2.0 0.00 0.00 0.00 81 1009.5
20260509044452 55 125 2.0 3.0 0.00 0.00 0.00 81 1009.9
20260509043949 55 109 2.0 3.0 0.00 0.00 0.00 81 1009.7